"FRM_AIS_EDR_2069.DAT           ",2005-08-25T01:42:59.69 ,"1/0073014174.37372",    0,    0,  219535,"AIS","B1","B1","B0","B0","PISd",0,0,0,0,"B1", 0,15,   0, 0,    0,"AIS","N/A    ","OK ","OK ",    001177.686,    -066.732,    -139.689,    0014.522,    0047.947
"FRM_AIS_EDR_2069.DAT           ",2005-08-25T01:43:07.23 ,"1/0073014182.07435",    0,    1,  219535,"AIS","B1","B1","B0","B0","PISd",0,0,0,0,"B1", 0,15,   0, 0,    0,"AIS","N/A    ","OK ","OK ",    001167.298,    -066.407,    -139.597,    0014.530,    0047.770
"FRM_AIS_EDR_2069.DAT           ",2005-08-25T01:43:14.78 ,"1/0073014189.43035",    0,    2,  219535,"AIS","B1","B1","B0","B0","PISd",0,0,0,0,"B1", 0,15,   0, 0,    0,"AIS","N/A    ","OK ","OK ",    001156.941,    -066.081,    -139.508,    0014.538,    0047.594
"FRM_AIS_EDR_2069.DAT           ",2005-08-25T01:43:22.32 ,"1/0073014197.13098",    0,    3,  219535,"AIS","B1","B1","B0","B0","PISd",0,0,0,0,"B1", 0,15,   0, 0,    0,"AIS","N/A    ","OK ","OK ",    001146.616,    -065.753,    -139.422,    0014.546,    0047.418
"FRM_AIS_EDR_2069.DAT           ",2005-08-25T01:43:29.86 ,"1/0073014204.48697",    0,    4,  219535,"AIS","B1","B1","B0","B0","PISd",0,0,0,0,"B1", 0,15,   0, 0,    0,"AIS","N/A    ","OK ","OK ",    001136.322,    -065.424,    -139.338,    0014.553,    0047.242
"FRM_AIS_EDR_2069.DAT           ",2005-08-25T01:43:37.41 ,"1/0073014212.18761",    0,    5,  219535,"AIS","B1","B1","B0","B0","PISd",0,0,0,0,"B1", 0,15,   0, 0,    0,"AIS","N/A    ","OK ","OK ",    001126.062,    -065.093,    -139.256,    0014.561,    0047.067
"FRM_AIS_EDR_2069.DAT           ",2005-08-25T01:43:44.95 ,"1/0073014219.54360",    0,    6,  219535,"AIS","B1","B1","B0","B0","PISd",0,0,0,0,"B1", 0,15,   0, 0,    0,"AIS","N/A    ","OK ","OK ",    001115.834,    -064.760,    -139.177,    0014.568,    0046.892
"FRM_AIS_EDR_2069.DAT           ",2005-08-25T01:43:52.49 ,"1/0073014227.24423",    0,    7,  219535,"AIS","B1","B1","B0","B0","PISd",0,0,0,0,"B1", 0,15,   0, 0,    0,"AIS","N/A    ","OK ","OK ",    001105.639,    -064.426,    -139.100,    0014.576,    0046.718
"FRM_AIS_EDR_2069.DAT           ",2005-08-25T01:44:00.03 ,"1/0073014234.60023",    0,    8,  219535,"AIS","B1","B1","B0","B0","PISd",0,0,0,0,"B1", 0,15,   0, 0,    0,"AIS","N/A    ","OK ","OK ",    001095.479,    -064.091,    -139.025,    0014.582,    0046.544
"FRM_AIS_EDR_2069.DAT           ",2005-08-25T01:44:07.58 ,"1/0073014242.30086",    0,    9,  219535,"AIS","B1","B1","B0","B0","PISd",0,0,0,0,"B1", 0,15,   0, 0,    0,"AIS","N/A    ","OK ","OK ",    001085.353,    -063.753,    -138.952,    0014.589,    0046.371
"FRM_AIS_EDR_2069.DAT           ",2005-08-25T01:44:15.12 ,"1/0073014250.00149",    0,   10,  219535,"AIS","B1","B1","B0","B0","PISd",0,0,0,0,"B1", 0,15,   0, 0,    0,"AIS","N/A    ","OK ","OK ",    001075.262,    -063.414,    -138.881,    0014.596,    0046.199
"FRM_AIS_EDR_2069.DAT           ",2005-08-25T01:44:22.66 ,"1/0073014257.35749",    0,   11,  219535,"AIS","B1","B1","B0","B0","PISd",0,0,0,0,"B1", 0,15,   0, 0,    0,"AIS","N/A    ","OK ","OK ",    001065.207,    -063.074,    -138.812,    0014.603,    0046.027
"FRM_AIS_EDR_2069.DAT           ",2005-08-25T01:44:30.21 ,"1/0073014265.05812",    0,   12,  219535,"AIS","B1","B1","B0","B0","PISd",0,0,0,0,"B1", 0,15,   0, 0,    0,"AIS","N/A    ","OK ","OK ",    001055.188,    -062.732,    -138.745,    0014.609,    0045.856
"FRM_AIS_EDR_2069.DAT           ",2005-08-25T01:44:37.75 ,"1/0073014272.41411",    0,   13,  219535,"AIS","B1","B1","B0","B0","PISd",0,0,0,0,"B1", 0,15,   0, 0,    0,"AIS","N/A    ","OK ","OK ",    001045.205,    -062.388,    -138.679,    0014.616,    0045.686
"FRM_AIS_EDR_2069.DAT           ",2005-08-25T01:44:45.29 ,"1/0073014280.11475",    0,   14,  219535,"AIS","B1","B1","B0","B0","PISd",0,0,0,0,"B1", 0,15,   0, 0,    0,"AIS","N/A    ","OK ","OK ",    001035.260,    -062.043,    -138.616,    0014.622,    0045.516
"FRM_AIS_EDR_2069.DAT           ",2005-08-25T01:44:52.84 ,"1/0073014287.47074",    0,   15,  219535,"AIS","B1","B1","B0","B0","PISd",0,0,0,0,"B1", 0,15,   0, 0,    0,"AIS","N/A    ","OK ","OK ",    001025.352,    -061.696,    -138.554,    0014.628,    0045.347
"FRM_AIS_EDR_2069.DAT           ",2005-08-25T01:45:00.38 ,"1/0073014295.17137",    0,   16,  219535,"AIS","B1","B1","B0","B0","PISd",0,0,0,0,"B1", 0,15,   0, 0,    0,"AIS","N/A    ","OK ","OK ",    001015.483,    -061.348,    -138.494,    0014.634,    0045.179
"FRM_AIS_EDR_2069.DAT           ",2005-08-25T01:45:07.92 ,"1/0073014302.52737",    0,   17,  219535,"AIS","B1","B1","B0","B0","PISd",0,0,0,0,"B1", 0,15,   0, 0,    0,"AIS","N/A    ","OK ","OK ",    001005.652,    -060.998,    -138.435,    0014.640,    0045.012
"FRM_AIS_EDR_2069.DAT           ",2005-08-25T01:45:15.47 ,"1/0073014310.22800",    0,   18,  219535,"AIS","B1","B1","B0","B0","PISd",0,0,0,0,"B1", 0,15,   0, 0,    0,"AIS","N/A    ","OK ","OK ",    000995.861,    -060.646,    -138.378,    0014.646,    0044.846
"FRM_AIS_EDR_2069.DAT           ",2005-08-25T01:45:23.01 ,"1/0073014317.58399",    0,   19,  219535,"AIS","B1","B1","B0","B0","PISd",0,0,0,0,"B1", 0,15,   0, 0,    0,"AIS","N/A    ","OK ","OK ",    000986.109,    -060.293,    -138.323,    0014.652,    0044.681
"FRM_AIS_EDR_2069.DAT           ",2005-08-25T01:45:30.55 ,"1/0073014325.28463",    0,   20,  219535,"AIS","B1","B1","B0","B0","PISd",0,0,0,0,"B1", 0,15,   0, 0,    0,"AIS","N/A    ","OK ","OK ",    000976.398,    -059.938,    -138.269,    0014.657,    0044.516
"FRM_AIS_EDR_2069.DAT           ",2005-08-25T01:45:38.10 ,"1/0073014332.64062",    0,   21,  219535,"AIS","B1","B1","B0","B0","PISd",0,0,0,0,"B1", 0,15,   0, 0,    0,"AIS","N/A    ","OK ","OK ",    000966.728,    -059.581,    -138.216,    0014.663,    0044.353
"FRM_AIS_EDR_2069.DAT           ",2005-08-25T01:45:45.64 ,"1/0073014340.34125",    0,   22,  219535,"AIS","B1","B1","B0","B0","PISd",0,0,0,0,"B1", 0,15,   0, 0,    0,"AIS","N/A    ","OK ","OK ",    000957.100,    -059.223,    -138.165,    0014.668,    0044.191
"FRM_AIS_EDR_2069.DAT           ",2005-08-25T01:45:53.18 ,"1/0073014348.04189",    0,   23,  219535,"AIS","B1","B1","B0","B0","PISd",0,0,0,0,"B1", 0,15,   0, 0,    0,"AIS","N/A    ","OK ","OK ",    000947.514,    -058.863,    -138.115,    0014.674,    0044.030
"FRM_AIS_EDR_2069.DAT           ",2005-08-25T01:46:00.73 ,"1/0073014355.39788",    0,   24,  219535,"AIS","B1","B1","B0","B0","PISd",0,0,0,0,"B1", 0,15,   0, 0,    0,"AIS","N/A    ","OK ","OK ",    000937.970,    -058.502,    -138.066,    0014.679,    0043.870
"FRM_AIS_EDR_2069.DAT           ",2005-08-25T01:46:08.27 ,"1/0073014363.09851",    0,   25,  219535,"AIS","B1","B1","B0","B0","PISd",0,0,0,0,"B1", 0,15,   0, 0,    0,"AIS","N/A    ","OK ","OK ",    000928.470,    -058.139,    -138.019,    0014.684,    0043.711
"FRM_AIS_EDR_2069.DAT           ",2005-08-25T01:46:15.81 ,"1/0073014370.45451",    0,   26,  219535,"AIS","B1","B1","B0","B0","PISd",0,0,0,0,"B1", 0,15,   0, 0,    0,"AIS","N/A    ","OK ","OK ",    000919.014,    -057.774,    -137.973,    0014.689,    0043.554
"FRM_AIS_EDR_2069.DAT           ",2005-08-25T01:46:23.36 ,"1/0073014378.15514",    0,   27,  219535,"AIS","B1","B1","B0","B0","PISd",0,0,0,0,"B1", 0,15,   0, 0,    0,"AIS","N/A    ","OK ","OK ",    000909.602,    -057.408,    -137.928,    0014.694,    0043.398
"FRM_AIS_EDR_2069.DAT           ",2005-08-25T01:46:30.90 ,"1/0073014385.51113",    0,   28,  219535,"AIS","B1","B1","B0","B0","PISd",0,0,0,0,"B1", 0,15,   0, 0,    0,"AIS","N/A    ","OK ","OK ",    000900.235,    -057.040,    -137.885,    0014.699,    0043.243
"FRM_AIS_EDR_2069.DAT           ",2005-08-25T01:46:38.44 ,"1/0073014393.21177",    0,   29,  219535,"AIS","B1","B1","B0","B0","PISd",0,0,0,0,"B1", 0,15,   0, 0,    0,"AIS","N/A    ","OK ","OK ",    000890.914,    -056.670,    -137.842,    0014.704,    0043.090
"FRM_AIS_EDR_2069.DAT           ",2005-08-25T01:46:45.99 ,"1/0073014400.56776",    0,   30,  219535,"AIS","B1","B1","B0","B0","PISd",0,0,0,0,"B1", 0,15,   0, 0,    0,"AIS","N/A    ","OK ","OK ",    000881.639,    -056.299,    -137.801,    0014.709,    0042.938
"FRM_AIS_EDR_2069.DAT           ",2005-08-25T01:46:53.53 ,"1/0073014408.26839",    0,   31,  219535,"AIS","B1","B1","B0","B0","PISd",0,0,0,0,"B1", 0,15,   0, 0,    0,"AIS","N/A    ","OK ","OK ",    000872.411,    -055.926,    -137.760,    0014.714,    0042.787
"FRM_AIS_EDR_2069.DAT           ",2005-08-25T01:47:01.07 ,"1/0073014415.62439",    0,   32,  219535,"AIS","B1","B1","B0","B0","PISd",0,0,0,0,"B1", 0,15,   0, 0,    0,"AIS","N/A    ","OK ","OK ",    000863.231,    -055.552,    -137.721,    0014.718,    0042.638
"FRM_AIS_EDR_2069.DAT           ",2005-08-25T01:47:08.61 ,"1/0073014423.32502",    0,   33,  219535,"AIS","B1","B1","B0","B0","PISd",0,0,0,0,"B1", 0,15,   0, 0,    0,"AIS","N/A    ","OK ","OK ",    000854.098,    -055.176,    -137.683,    0014.723,    0042.491
"FRM_AIS_EDR_2069.DAT           ",2005-08-25T01:47:16.16 ,"1/0073014431.02565",    0,   34,  219535,"AIS","B1","B1","B0","B0","PISd",0,0,0,0,"B1", 0,15,   0, 0,    0,"AIS","N/A    ","OK ","OK ",    000845.015,    -054.798,    -137.646,    0014.727,    0042.346
"FRM_AIS_EDR_2069.DAT           ",2005-08-25T01:47:23.70 ,"1/0073014438.38165",    0,   35,  219535,"AIS","B1","B1","B0","B0","PISd",0,0,0,0,"B1", 0,15,   0, 0,    0,"AIS","N/A    ","OK ","OK ",    000835.980,    -054.418,    -137.610,    0014.732,    0042.202
"FRM_AIS_EDR_2069.DAT           ",2005-08-25T01:47:31.24 ,"1/0073014446.08228",    0,   36,  219535,"AIS","B1","B1","B0","B0","PISd",0,0,0,0,"B1", 0,15,   0, 0,    0,"AIS","N/A    ","OK ","OK ",    000826.996,    -054.037,    -137.574,    0014.736,    0042.060
"FRM_AIS_EDR_2069.DAT           ",2005-08-25T01:47:38.79 ,"1/0073014453.43827",    0,   37,  219535,"AIS","B1","B1","B0","B0","PISd",0,0,0,0,"B1", 0,15,   0, 0,    0,"AIS","N/A    ","OK ","OK ",    000818.062,    -053.655,    -137.540,    0014.741,    0041.919
"FRM_AIS_EDR_2069.DAT           ",2005-08-25T01:47:46.33 ,"1/0073014461.13891",    0,   38,  219535,"AIS","B1","B1","B0","B0","PISd",0,0,0,0,"B1", 0,15,   0, 0,    0,"AIS","N/A    ","OK ","OK ",    000809.180,    -053.270,    -137.507,    0014.745,    0041.781
"FRM_AIS_EDR_2069.DAT           ",2005-08-25T01:47:53.87 ,"1/0073014468.49490",    0,   39,  219535,"AIS","B1","B1","B0","B0","PISd",0,0,0,0,"B1", 0,15,   0, 0,    0,"AIS","N/A    ","OK ","OK ",    000800.349,    -052.884,    -137.474,    0014.749,    0041.644
"FRM_AIS_EDR_2069.DAT           ",2005-08-25T01:48:01.42 ,"1/0073014476.19553",    0,   40,  219535,"AIS","B1","B1","B0","B0","PISd",0,0,0,0,"B1", 0,15,   0, 0,    0,"AIS","N/A    ","OK ","OK ",    000791.571,    -052.497,    -137.442,    0014.753,    0041.510
"FRM_AIS_EDR_2069.DAT           ",2005-08-25T01:48:08.96 ,"1/0073014483.55153",    0,   41,  219535,"AIS","B1","B1","B0","B0","PISd",0,0,0,0,"B1", 0,15,   0, 0,    0,"AIS","N/A    ","OK ","OK ",    000782.845,    -052.108,    -137.411,    0014.757,    0041.378
"FRM_AIS_EDR_2069.DAT           ",2005-08-25T01:48:16.50 ,"1/0073014491.25216",    0,   42,  219535,"AIS","B1","B1","B0","B0","PISd",0,0,0,0,"B1", 0,15,   0, 0,    0,"AIS","N/A    ","OK ","OK ",    000774.174,    -051.717,    -137.381,    0014.761,    0041.247
"FRM_AIS_EDR_2069.DAT           ",2005-08-25T01:48:24.05 ,"1/0073014498.60815",    0,   43,  219535,"AIS","B1","B1","B0","B0","PISd",0,0,0,0,"B1", 0,15,   0, 0,    0,"AIS","N/A    ","OK ","OK ",    000765.557,    -051.324,    -137.352,    0014.765,    0041.119
"FRM_AIS_EDR_2069.DAT           ",2005-08-25T01:48:31.59 ,"1/0073014506.30879",    0,   44,  219535,"AIS","B1","B1","B0","B0","PISd",0,0,0,0,"B1", 0,15,   0, 0,    0,"AIS","N/A    ","OK ","OK ",    000756.995,    -050.930,    -137.324,    0014.769,    0040.993
"FRM_AIS_EDR_2069.DAT           ",2005-08-25T01:48:39.13 ,"1/0073014514.00942",    0,   45,  219535,"AIS","B1","B1","B0","B0","PISd",0,0,0,0,"B1", 0,15,   0, 0,    0,"AIS","N/A    ","OK ","OK ",    000748.489,    -050.534,    -137.296,    0014.773,    0040.870
"FRM_AIS_EDR_2069.DAT           ",2005-08-25T01:48:46.68 ,"1/0073014521.36541",    0,   46,  219535,"AIS","B1","B1","B0","B0","PISd",0,0,0,0,"B1", 0,15,   0, 0,    0,"AIS","N/A    ","OK ","OK ",    000740.039,    -050.137,    -137.269,    0014.777,    0040.749
"FRM_AIS_EDR_2069.DAT           ",2005-08-25T01:48:54.22 ,"1/0073014529.06604",    0,   47,  219535,"AIS","B1","B1","B0","B0","PISd",0,0,0,0,"B1", 0,15,   0, 0,    0,"AIS","N/A    ","OK ","OK ",    000731.646,    -049.738,    -137.243,    0014.781,    0040.630
"FRM_AIS_EDR_2069.DAT           ",2005-08-25T01:49:01.76 ,"1/0073014536.42204",    0,   48,  219535,"AIS","B1","B1","B0","B0","PISd",0,0,0,0,"B1", 0,15,   0, 0,    0,"AIS","N/A    ","OK ","OK ",    000723.311,    -049.337,    -137.217,    0014.784,    0040.514
"FRM_AIS_EDR_2069.DAT           ",2005-08-25T01:49:09.31 ,"1/0073014544.12267",    0,   49,  219535,"AIS","B1","B1","B0","B0","PISd",0,0,0,0,"B1", 0,15,   0, 0,    0,"AIS","N/A    ","OK ","OK ",    000715.034,    -048.935,    -137.192,    0014.788,    0040.400
"FRM_AIS_EDR_2069.DAT           ",2005-08-25T01:49:16.85 ,"1/0073014551.47866",    0,   50,  219535,"AIS","B1","B1","B0","B0","PISd",0,0,0,0,"B1", 0,15,   0, 0,    0,"AIS","N/A    ","OK ","OK ",    000706.816,    -048.531,    -137.168,    0014.792,    0040.289
"FRM_AIS_EDR_2069.DAT           ",2005-08-25T01:49:24.39 ,"1/0073014559.17930",    0,   51,  219535,"AIS","B1","B1","B0","B0","PISd",0,0,0,0,"B1", 0,15,   0, 0,    0,"AIS","N/A    ","OK ","OK ",    000698.658,    -048.125,    -137.145,    0014.796,    0040.180
"FRM_AIS_EDR_2069.DAT           ",2005-08-25T01:49:31.94 ,"1/0073014566.53529",    0,   52,  219535,"AIS","B1","B1","B0","B0","PISd",0,0,0,0,"B1", 0,15,   0, 0,    0,"AIS","N/A    ","OK ","OK ",    000690.560,    -047.718,    -137.122,    0014.799,    0040.075
"FRM_AIS_EDR_2069.DAT           ",2005-08-25T01:49:39.48 ,"1/0073014574.23592",    0,   53,  219535,"AIS","B1","B1","B0","B0","PISd",0,0,0,0,"B1", 0,15,   0, 0,    0,"AIS","N/A    ","OK ","OK ",    000682.523,    -047.309,    -137.099,    0014.803,    0039.972
"FRM_AIS_EDR_2069.DAT           ",2005-08-25T01:49:47.02 ,"1/0073014581.59192",    0,   54,  219535,"AIS","B1","B1","B0","B0","PISd",0,0,0,0,"B1", 0,15,   0, 0,    0,"AIS","N/A    ","OK ","OK ",    000674.548,    -046.899,    -137.078,    0014.806,    0039.872
"FRM_AIS_EDR_2069.DAT           ",2005-08-25T01:49:54.57 ,"1/0073014589.29255",    0,   55,  219535,"AIS","B1","B1","B0","B0","PISd",0,0,0,0,"B1", 0,15,   0, 0,    0,"AIS","N/A    ","OK ","OK ",    000666.635,    -046.487,    -137.057,    0014.809,    0039.775
"FRM_AIS_EDR_2069.DAT           ",2005-08-25T01:50:02.11 ,"1/0073014596.64854",    0,   56,  219535,"AIS","B1","B1","B0","B0","PISd",0,0,0,0,"B1", 0,15,   0, 0,    0,"AIS","N/A    ","OK ","OK ",    000658.785,    -046.073,    -137.036,    0014.813,    0039.681
"FRM_AIS_EDR_2069.DAT           ",2005-08-25T01:50:09.65 ,"1/0073014604.34918",    0,   57,  219535,"AIS","B1","B1","B0","B0","PISd",0,0,0,0,"B1", 0,15,   0, 0,    0,"AIS","N/A    ","OK ","OK ",    000650.999,    -045.658,    -137.016,    0014.816,    0039.590
"FRM_AIS_EDR_2069.DAT           ",2005-08-25T01:50:17.19 ,"1/0073014612.04981",    0,   58,  219535,"AIS","B1","B1","B0","B0","PISd",0,0,0,0,"B1", 0,15,   0, 0,    0,"AIS","N/A    ","OK ","OK ",    000643.277,    -045.241,    -136.997,    0014.820,    0039.503
"FRM_AIS_EDR_2069.DAT           ",2005-08-25T01:50:24.74 ,"1/0073014619.40580",    0,   59,  219535,"AIS","B1","B1","B0","B0","PISd",0,0,0,0,"B1", 0,15,   0, 0,    0,"AIS","N/A    ","OK ","OK ",    000635.620,    -044.823,    -136.978,    0014.823,    0039.418
"FRM_AIS_EDR_2069.DAT           ",2005-08-25T01:50:32.28 ,"1/0073014627.10644",    0,   60,  219535,"AIS","B1","B1","B0","B0","PISd",0,0,0,0,"B1", 0,15,   0, 0,    0,"AIS","N/A    ","OK ","OK ",    000628.029,    -044.403,    -136.960,    0014.826,    0039.337
"FRM_AIS_EDR_2069.DAT           ",2005-08-25T01:50:39.82 ,"1/0073014634.46243",    0,   61,  219535,"AIS","B1","B1","B0","B0","PISd",0,0,0,0,"B1", 0,15,   0, 0,    0,"AIS","N/A    ","OK ","OK ",    000620.505,    -043.981,    -136.942,    0014.829,    0039.259
"FRM_AIS_EDR_2069.DAT           ",2005-08-25T01:50:47.37 ,"1/0073014642.16306",    0,   62,  219535,"AIS","B1","B1","B0","B0","PISd",0,0,0,0,"B1", 0,15,   0, 0,    0,"AIS","N/A    ","OK ","OK ",    000613.047,    -043.558,    -136.925,    0014.832,    0039.185
"FRM_AIS_EDR_2069.DAT           ",2005-08-25T01:50:54.91 ,"1/0073014649.51906",    0,   63,  219535,"AIS","B1","B1","B0","B0","PISd",0,0,0,0,"B1", 0,15,   0, 0,    0,"AIS","N/A    ","OK ","OK ",    000605.658,    -043.133,    -136.908,    0014.836,    0039.114
"FRM_AIS_EDR_2069.DAT           ",2005-08-25T01:51:02.45 ,"1/0073014657.21969",    0,   64,  219535,"AIS","B1","B1","B0","B0","PISd",0,0,0,0,"B1", 0,15,   0, 0,    0,"AIS","N/A    ","OK ","OK ",    000598.337,    -042.707,    -136.892,    0014.839,    0039.046
"FRM_AIS_EDR_2069.DAT           ",2005-08-25T01:51:10.00 ,"1/0073014664.57568",    0,   65,  219535,"AIS","B1","B1","B0","B0","PISd",0,0,0,0,"B1", 0,15,   0, 0,    0,"AIS","N/A    ","OK ","OK ",    000591.085,    -042.279,    -136.876,    0014.842,    0038.982
"FRM_AIS_EDR_2069.DAT           ",2005-08-25T01:51:17.54 ,"1/0073014672.27632",    0,   66,  219535,"AIS","B1","B1","B0","B0","PISd",0,0,0,0,"B1", 0,15,   0, 0,    0,"AIS","N/A    ","OK ","OK ",    000583.902,    -041.850,    -136.861,    0014.845,    0038.922
"FRM_AIS_EDR_2069.DAT           ",2005-08-25T01:51:25.08 ,"1/0073014679.63231",    0,   67,  219535,"AIS","B1","B1","B0","B0","PISd",0,0,0,0,"B1", 0,15,   0, 0,    0,"AIS","N/A    ","OK ","OK ",    000576.791,    -041.419,    -136.846,    0014.848,    0038.866
"FRM_AIS_EDR_2069.DAT           ",2005-08-25T01:51:32.63 ,"1/0073014687.33294",    0,   68,  219535,"AIS","B1","B1","B0","B0","PISd",0,0,0,0,"B1", 0,15,   0, 0,    0,"AIS","N/A    ","OK ","OK ",    000569.750,    -040.986,    -136.831,    0014.851,    0038.814
"FRM_AIS_EDR_2069.DAT           ",2005-08-25T01:51:40.17 ,"1/0073014695.03358",    0,   69,  219535,"AIS","B1","B1","B0","B0","PISd",0,0,0,0,"B1", 0,15,   0, 0,    0,"AIS","N/A    ","OK ","OK ",    000562.782,    -040.552,    -136.817,    0014.854,    0038.765
"FRM_AIS_EDR_2069.DAT           ",2005-08-25T01:51:47.71 ,"1/0073014702.38957",    0,   70,  219535,"AIS","B1","B1","B0","B0","PISd",0,0,0,0,"B1", 0,15,   0, 0,    0,"AIS","N/A    ","OK ","OK ",    000555.886,    -040.117,    -136.804,    0014.857,    0038.720
"FRM_AIS_EDR_2069.DAT           ",2005-08-25T01:51:55.26 ,"1/0073014710.09020",    0,   71,  219535,"AIS","B1","B1","B0","B0","PISd",0,0,0,0,"B1", 0,15,   0, 0,    0,"AIS","N/A    ","OK ","OK ",    000549.063,    -039.680,    -136.791,    0014.860,    0038.679
"FRM_AIS_EDR_2069.DAT           ",2005-08-25T01:52:02.80 ,"1/0073014717.44620",    0,   72,  219535,"AIS","B1","B1","B0","B0","PISd",0,0,0,0,"B1", 0,15,   0, 0,    0,"AIS","N/A    ","OK ","OK ",    000542.314,    -039.241,    -136.778,    0014.863,    0038.643
"FRM_AIS_EDR_2069.DAT           ",2005-08-25T01:52:10.34 ,"1/0073014725.14683",    0,   73,  219535,"AIS","B1","B1","B0","B0","PISd",0,0,0,0,"B1", 0,15,   0, 0,    0,"AIS","N/A    ","OK ","OK ",    000535.640,    -038.801,    -136.766,    0014.866,    0038.610
"FRM_AIS_EDR_2069.DAT           ",2005-08-25T01:52:17.89 ,"1/0073014732.50282",    0,   74,  219535,"AIS","B1","B1","B0","B0","PISd",0,0,0,0,"B1", 0,15,   0, 0,    0,"AIS","N/A    ","OK ","OK ",    000529.041,    -038.360,    -136.754,    0014.868,    0038.582
"FRM_AIS_EDR_2069.DAT           ",2005-08-25T01:52:25.43 ,"1/0073014740.20346",    0,   75,  219535,"AIS","B1","B1","B0","B0","PISd",0,0,0,0,"B1", 0,15,   0, 0,    0,"AIS","N/A    ","OK ","OK ",    000522.518,    -037.917,    -136.742,    0014.871,    0038.557
"FRM_AIS_EDR_2069.DAT           ",2005-08-25T01:52:32.97 ,"1/0073014747.55945",    0,   76,  219535,"AIS","B1","B1","B0","B0","PISd",0,0,0,0,"B1", 0,15,   0, 0,    0,"AIS","N/A    ","OK ","OK ",    000516.072,    -037.473,    -136.731,    0014.874,    0038.537
"FRM_AIS_EDR_2069.DAT           ",2005-08-25T01:52:40.52 ,"1/0073014755.26008",    0,   77,  219535,"AIS","B1","B1","B0","B0","PISd",0,0,0,0,"B1", 0,15,   0, 0,    0,"AIS","N/A    ","OK ","OK ",    000509.703,    -037.027,    -136.720,    0014.877,    0038.522
"FRM_AIS_EDR_2069.DAT           ",2005-08-25T01:52:48.06 ,"1/0073014762.61608",    0,   78,  219535,"AIS","B1","B1","B0","B0","PISd",0,0,0,0,"B1", 0,15,   0, 0,    0,"AIS","N/A    ","OK ","OK ",    000503.412,    -036.579,    -136.710,    0014.879,    0038.511
"FRM_AIS_EDR_2069.DAT           ",2005-08-25T01:52:55.60 ,"1/0073014770.31671",    0,   79,  219535,"AIS","B1","B1","B0","B0","PISd",0,0,0,0,"B1", 0,15,   0, 0,    0,"AIS","N/A    ","OK ","OK ",    000497.200,    -036.131,    -136.699,    0014.882,    0038.504
"FRM_AIS_EDR_2069.DAT           ",2005-08-25T01:53:03.15 ,"1/0073014778.01734",    0,   80,  219535,"AIS","B1","B1","B0","B0","PISd",0,0,0,0,"B1", 0,15,   0, 0,    0,"AIS","N/A    ","OK ","OK ",    000491.067,    -035.681,    -136.690,    0014.885,    0038.501
"FRM_AIS_EDR_2069.DAT           ",2005-08-25T01:53:10.69 ,"1/0073014785.37334",    0,   81,  219535,"AIS","B1","B1","B0","B0","PISd",0,0,0,0,"B1", 0,15,   0, 0,    0,"AIS","N/A    ","OK ","OK ",    000485.014,    -035.229,    -136.680,    0014.887,    0038.504
"FRM_AIS_EDR_2069.DAT           ",2005-08-25T01:53:18.23 ,"1/0073014793.07397",    0,   82,  219535,"AIS","B1","B1","B0","B0","PISd",0,0,0,0,"B1", 0,15,   0, 0,    0,"AIS","N/A    ","OK ","OK ",    000479.042,    -034.776,    -136.671,    0014.890,    0038.510
"FRM_AIS_EDR_2069.DAT           ",2005-08-25T01:53:25.77 ,"1/0073014800.42996",    0,   83,  219535,"AIS","B1","B1","B0","B0","PISd",0,0,0,0,"B1", 0,15,   0, 0,    0,"AIS","N/A    ","OK ","OK ",    000473.150,    -034.322,    -136.662,    0014.893,    0038.522
"FRM_AIS_EDR_2069.DAT           ",2005-08-25T01:53:33.32 ,"1/0073014808.13059",    0,   84,  219535,"AIS","B1","B1","B0","B0","PISd",0,0,0,0,"B1", 0,15,   0, 0,    0,"AIS","N/A    ","OK ","OK ",    000467.341,    -033.866,    -136.654,    0014.896,    0038.538
"FRM_AIS_EDR_2069.DAT           ",2005-08-25T01:53:40.86 ,"1/0073014815.48659",    0,   85,  219535,"AIS","B1","B1","B0","B0","PISd",0,0,0,0,"B1", 0,15,   0, 0,    0,"AIS","N/A    ","OK ","OK ",    000461.615,    -033.409,    -136.645,    0014.898,    0038.558
"FRM_AIS_EDR_2069.DAT           ",2005-08-25T01:53:48.40 ,"1/0073014823.18722",    0,   86,  219535,"AIS","B1","B1","B0","B0","PISd",0,0,0,0,"B1", 0,15,   0, 0,    0,"AIS","N/A    ","OK ","OK ",    000455.971,    -032.951,    -136.637,    0014.901,    0038.584
"FRM_AIS_EDR_2069.DAT           ",2005-08-25T01:53:55.95 ,"1/0073014830.54321",    0,   87,  219535,"AIS","B1","B1","B0","B0","PISd",0,0,0,0,"B1", 0,15,   0, 0,    0,"AIS","N/A    ","OK ","OK ",    000450.412,    -032.492,    -136.630,    0014.903,    0038.614
"FRM_AIS_EDR_2069.DAT           ",2005-08-25T01:54:03.49 ,"1/0073014838.24385",    0,   88,  219535,"AIS","B1","B1","B0","B0","PISd",0,0,0,0,"B1", 0,15,   0, 0,    0,"AIS","N/A    ","OK ","OK ",    000444.937,    -032.031,    -136.622,    0014.906,    0038.648
"FRM_AIS_EDR_2069.DAT           ",2005-08-25T01:54:11.03 ,"1/0073014845.59984",    0,   89,  219535,"AIS","B1","B1","B0","B0","PISd",0,0,0,0,"B1", 0,15,   0, 0,    0,"AIS","N/A    ","OK ","OK ",    000439.547,    -031.568,    -136.615,    0014.908,    0038.688
"FRM_AIS_EDR_2069.DAT           ",2005-08-25T01:54:18.58 ,"1/0073014853.30047",    0,   90,  219535,"AIS","B1","B1","B0","B0","PISd",0,0,0,0,"B1", 0,15,   0, 0,    0,"AIS","N/A    ","OK ","OK ",    000434.243,    -031.105,    -136.608,    0014.911,    0038.733